Погода в Лесном

Беларусь     54°00′16″N   27°41′12″E
темп.,
°C
ветер,
м/с
пор.,
м/с
влажн.,
%
обл.,
%
осадки,
мм/ч
давл.,
гПа
погр.,
м
12 мая, ср
ср1200:00+11вюв39910 0.0 1020155
03:00+10вюв39945 0.0 1020193
06:00+10вюв36975 0.0 1020131
09:00+14юв69743 0.0 1020644
12:00+15юв78520 0.0 10201201
15:00+16юв68513 0.0 10191518
18:00+16юв465238 0.0 10171571
21:00+11всв22735 0.0 101515
13 мая, чт
чт1300:00+11ссв1170100 0.0 101317
03:00+9ююз1193100 2.2 101048
06:00+8ю5898100 7.4 1008422
09:00+8ююв6997100 17.4 1008705
12:00+7юв6995100 6.5 10091069
15:00+8юв61095100 9.1 1009935
18:00+9юв51091100 0.9 1009532
21:00+9юв61190100 1.6 1008508
14 мая, пт
пт1400:00+9юв51293100 0.3 1007633
03:00+9юв61496100 1.0 1007650
06:00+9юв51496100 0.3 1007528
09:00+11юв61391100 0.4 1007687
12:00+13юв71282100 0.0 10071016
15:00+14ююв697596 0.2 1007916
18:00+14ю457879 0.1 1006659
21:00+11ююз2293100 0.1 100714
15 мая, сб
сб1500:00+10ю359599 0.0 100789
03:00+9юз2498100 0.0 100798
06:00+8юз2698100 0.0 1007167
09:00+12юз3584100 0.0 1007565
12:00+12юз4584100 0.0 1008597
15:00+13зюз5780100 0.1 1008819
18:00+14з467642 0.1 1009834
21:00+11зюз22890 0.3 100924
16 мая, вс
вс1600:00+9зюз22894 0.0 101126
03:00+8юз11890 0.0 101210
06:00+8ююз11905 0.0 101210
09:00+14ю237537 0.0 1013389
12:00+18ю3363100 0.0 10131106
15:00+20юв335470 0.3 10131672
18:00+18вюв3670100 0.1 1012451
21:00+14в41083100 0.2 1013212